BCS385 LPPT-LPMA

Flight info

Callsign BCS385
Flight time 1h 28m
Altitude 29000
Route ULVOT DCT GALPA DCT RAKUN
Aircraft B722/M-SDFGHRWY/C

Departure

Time 2026-05-04 12:07
Airport Lisbon Humberto Delgado Airport (LPPT)

Arrival

Time 2026-05-04 13:35
Airport Cristiano Ronaldo International Airport (LPMA)
Time Latitude Longitude Altitude Speed Heading
2026-05-04 11:47 38.76825 -9.13933 348 ft 0 kts 258°
2026-05-04 11:59 38.76826 -9.13930 350 ft 4 kts 232°
2026-05-04 11:59 38.76838 -9.13915 349 ft 4 kts 228°
2026-05-04 11:59 38.76855 -9.13888 349 ft 4 kts 233°
2026-05-04 12:00 38.76872 -9.13861 350 ft 4 kts 226°
2026-05-04 12:00 38.76892 -9.13845 351 ft 4 kts 185°
2026-05-04 12:00 38.76902 -9.13847 353 ft 1 kts 168°
2026-05-04 12:03 38.76892 -9.13844 354 ft 4 kts 168°
2026-05-04 12:03 38.76852 -9.13833 355 ft 8 kts 168°
2026-05-04 12:04 38.76785 -9.13815 355 ft 12 kts 168°
2026-05-04 12:04 38.76699 -9.13791 357 ft 13 kts 168°
2026-05-04 12:04 38.76625 -9.13794 357 ft 10 kts 220°
2026-05-04 12:04 38.76591 -9.13882 352 ft 12 kts 255°
2026-05-04 12:05 38.76574 -9.13991 357 ft 13 kts 253°
2026-05-04 12:05 38.76559 -9.14076 356 ft 11 kts 266°
2026-05-04 12:05 38.76576 -9.14185 350 ft 7 kts 291°
2026-05-04 12:05 38.76580 -9.14197 353 ft 4 kts 290°
2026-05-04 12:06 38.76609 -9.14286 338 ft 18 kts 290°
2026-05-04 12:06 38.76679 -9.14363 337 ft 14 kts
2026-05-04 12:06 38.76937 -9.14233 351 ft 68 kts 25°
2026-05-04 12:06 38.77537 -9.13915 372 ft 117 kts 25°
2026-05-04 12:07 38.78434 -9.13482 408 ft 149 kts 20°
2026-05-04 12:07 38.79397 -9.12871 662 ft 157 kts 32°
2026-05-04 12:07 38.80125 -9.11936 1284 ft 143 kts 47°
2026-05-04 12:07 38.80977 -9.11260 1585 ft 149 kts 22°
2026-05-04 12:08 38.81961 -9.10657 1803 ft 170 kts 27°
2026-05-04 12:08 38.83052 -9.09907 2048 ft 190 kts 28°
2026-05-04 12:08 38.84337 -9.09026 2203 ft 228 kts 28°
2026-05-04 12:08 38.85817 -9.07974 2567 ft 259 kts 33°
2026-05-04 12:09 38.87143 -9.06240 2976 ft 291 kts 59°
2026-05-04 12:09 38.87797 -9.03670 3366 ft 321 kts 86°
2026-05-04 12:09 38.87357 -9.00762 3743 ft 349 kts 118°
2026-05-04 12:09 38.85790 -8.98398 4105 ft 361 kts 145°
2026-05-04 12:10 38.83418 -8.97235 4475 ft 374 kts 175°
2026-05-04 12:10 38.80832 -8.97609 4834 ft 380 kts 198°
2026-05-04 12:10 38.78379 -8.98875 5222 ft 376 kts 209°
2026-05-04 12:10 38.76116 -9.00427 5716 ft 365 kts 209°
2026-05-04 12:11 38.73786 -9.01790 6351 ft 372 kts 204°
2026-05-04 12:11 38.71366 -9.03021 7067 ft 378 kts 203°
2026-05-04 12:11 38.68903 -9.04256 7788 ft 383 kts 204°
2026-05-04 12:11 38.66432 -9.05568 8516 ft 386 kts 205°
2026-05-04 12:12 38.63952 -9.06925 9235 ft 389 kts 205°
2026-05-04 12:12 38.61456 -9.08281 9952 ft 391 kts 204°
2026-05-04 12:12 38.58928 -9.09595 10658 ft 393 kts 204°
2026-05-04 12:12 38.56395 -9.10931 11392 ft 393 kts 205°
2026-05-04 12:13 38.53874 -9.12269 12107 ft 394 kts 205°
2026-05-04 12:14 38.37022 -9.23299 17198 ft 384 kts 222°
2026-05-04 12:15 38.34944 -9.25419 17903 ft 383 kts 220°
2026-05-04 12:15 38.32818 -9.27438 18606 ft 380 kts 219°
2026-05-04 12:15 38.30701 -9.29431 19317 ft 377 kts 220°
2026-05-04 12:15 38.28657 -9.31428 20039 ft 373 kts 221°
2026-05-04 12:16 38.26623 -9.33435 20744 ft 368 kts 221°
2026-05-04 12:16 38.24573 -9.35418 21460 ft 363 kts 220°
2026-05-04 12:16 38.22579 -9.37333 22165 ft 356 kts 221°
2026-05-04 12:16 38.20645 -9.39206 22850 ft 352 kts 221°
2026-05-04 12:17 38.18706 -9.41094 23423 ft 351 kts 221°
2026-05-04 12:17 38.16771 -9.42968 24009 ft 348 kts 221°
2026-05-04 12:17 38.14850 -9.44822 24595 ft 345 kts 221°
2026-05-04 12:17 38.12952 -9.46655 25179 ft 341 kts 221°
2026-05-04 12:18 38.11076 -9.48469 25761 ft 336 kts 221°
2026-05-04 12:18 38.09234 -9.50248 26345 ft 330 kts 221°
2026-05-04 12:18 38.07421 -9.51998 26918 ft 324 kts 221°
2026-05-04 12:18 38.05650 -9.53705 27487 ft 316 kts 221°
2026-05-04 12:19 38.03923 -9.55369 28050 ft 307 kts 222°
2026-05-04 12:19 38.02788 -9.56462 28438 ft 300 kts 222°
2026-05-04 12:19 38.00605 -9.58569 28766 ft 301 kts 222°
2026-05-04 12:19 37.98965 -9.60226 28920 ft 303 kts 224°
2026-05-04 12:20 37.96251 -9.63164 29141 ft 310 kts 225°
2026-05-04 12:20 37.92877 -9.66766 29142 ft 329 kts 224°
2026-05-04 12:21 37.89276 -9.70601 29133 ft 348 kts 224°
2026-05-04 12:21 37.85463 -9.74661 29131 ft 368 kts 224°
2026-05-04 12:22 37.81442 -9.78938 29132 ft 388 kts 224°
2026-05-04 12:22 37.77210 -9.83436 29134 ft 407 kts 224°
2026-05-04 12:23 37.72781 -9.88133 29129 ft 425 kts 224°
2026-05-04 12:23 37.68159 -9.93031 29127 ft 442 kts 224°
2026-05-04 12:24 37.63370 -9.98125 29137 ft 458 kts 225°
2026-05-04 12:24 37.61168 -10.00932 29130 ft 442 kts 231°
2026-05-04 12:24 37.59229 -10.03913 29134 ft 440 kts 236°
2026-05-04 12:25 37.55531 -10.10136 29114 ft 449 kts 234°
2026-05-04 12:25 37.51479 -10.16268 29123 ft 459 kts 234°
2026-05-04 12:26 37.47540 -10.22561 29120 ft 458 kts 234°
2026-05-04 12:26 37.43527 -10.28781 29112 ft 458 kts 234°
2026-05-04 12:27 37.39550 -10.35024 29111 ft 457 kts 234°
2026-05-04 12:27 37.35554 -10.41242 29114 ft 457 kts 234°
2026-05-04 12:28 37.31563 -10.47459 29108 ft 457 kts 234°
2026-05-04 12:28 37.27565 -10.53665 29110 ft 457 kts 234°
2026-05-04 12:29 37.23570 -10.59862 29111 ft 457 kts 234°
2026-05-04 12:29 37.19569 -10.66054 29111 ft 457 kts 234°
2026-05-04 12:30 37.15563 -10.72241 29109 ft 456 kts 234°
2026-05-04 12:30 37.11547 -10.78438 29111 ft 463 kts 234°
2026-05-04 12:31 37.07443 -10.84771 29113 ft 470 kts 234°
2026-05-04 12:31 37.03329 -10.91074 29114 ft 470 kts 234°
2026-05-04 12:32 36.97102 -11.00624 29121 ft 470 kts 234°
2026-05-04 12:33 36.92986 -11.06914 29121 ft 470 kts 234°
2026-05-04 12:33 36.88840 -11.13243 29119 ft 470 kts 234°
2026-05-04 12:34 36.84691 -11.19559 29118 ft 471 kts 234°
2026-05-04 12:34 36.80538 -11.25874 29119 ft 471 kts 233°
2026-05-04 12:35 36.76382 -11.32180 29121 ft 471 kts 233°
2026-05-04 12:35 36.72219 -11.38482 29124 ft 471 kts 233°
2026-05-04 12:36 36.68056 -11.44776 29124 ft 470 kts 233°
2026-05-04 12:36 36.63890 -11.51061 29122 ft 470 kts 233°
2026-05-04 12:37 36.59723 -11.57336 29121 ft 471 kts 233°
2026-05-04 12:37 36.55547 -11.63612 29121 ft 470 kts 233°
2026-05-04 12:38 36.51375 -11.69872 29120 ft 470 kts 233°
2026-05-04 12:38 36.47198 -11.76128 29120 ft 470 kts 233°
2026-05-04 12:39 36.43020 -11.82371 29118 ft 470 kts 233°
2026-05-04 12:39 36.38841 -11.88609 29116 ft 470 kts 233°
2026-05-04 12:40 36.34656 -11.94840 29116 ft 470 kts 233°
2026-05-04 12:40 36.30470 -12.01064 29116 ft 470 kts 233°
2026-05-04 12:41 36.26275 -12.07286 29114 ft 470 kts 233°
2026-05-04 12:41 36.22079 -12.13502 29102 ft 471 kts 233°
2026-05-04 12:41 36.19977 -12.16615 28949 ft 470 kts 233°
2026-05-04 12:42 36.17925 -12.19637 28798 ft 454 kts 233°
2026-05-04 12:42 36.15920 -12.22570 28631 ft 443 kts 233°
2026-05-04 12:42 36.13932 -12.25505 28466 ft 446 kts 233°
2026-05-04 12:42 36.11946 -12.28456 28310 ft 446 kts 233°
2026-05-04 12:43 36.09956 -12.31387 28147 ft 445 kts 233°
2026-05-04 12:43 36.07960 -12.34309 27996 ft 445 kts 233°
2026-05-04 12:43 36.05969 -12.37232 27843 ft 444 kts 233°
2026-05-04 12:43 36.03988 -12.40151 27689 ft 443 kts 233°
2026-05-04 12:44 36.02005 -12.43064 27533 ft 443 kts 233°
2026-05-04 12:44 36.00018 -12.45971 27380 ft 442 kts 233°
2026-05-04 12:44 35.98040 -12.48869 27235 ft 441 kts 233°
2026-05-04 12:44 35.96066 -12.51763 27066 ft 440 kts 233°
2026-05-04 12:45 35.94093 -12.54649 26914 ft 440 kts 233°
2026-05-04 12:45 35.92118 -12.57531 26757 ft 439 kts 233°
2026-05-04 12:45 35.90148 -12.60407 26610 ft 439 kts 233°
2026-05-04 12:45 35.88179 -12.63282 26447 ft 438 kts 233°
2026-05-04 12:46 35.86215 -12.66145 26291 ft 438 kts 233°
2026-05-04 12:46 35.84248 -12.69008 26136 ft 437 kts 233°
2026-05-04 12:46 35.82285 -12.71865 25982 ft 436 kts 233°
2026-05-04 12:46 35.80321 -12.74721 25833 ft 436 kts 233°
2026-05-04 12:47 35.78364 -12.77563 25670 ft 435 kts 233°
2026-05-04 12:47 35.76406 -12.80406 25516 ft 435 kts 233°
2026-05-04 12:47 35.74453 -12.83237 25357 ft 434 kts 233°
2026-05-04 12:47 35.72500 -12.86068 25206 ft 433 kts 233°
2026-05-04 12:48 35.70549 -12.88893 25051 ft 433 kts 232°
2026-05-04 12:48 35.68600 -12.91712 24895 ft 432 kts 233°
2026-05-04 12:48 35.66657 -12.94520 24741 ft 431 kts 232°
2026-05-04 12:48 35.64712 -12.97328 24583 ft 431 kts 232°
2026-05-04 12:49 35.62769 -13.00134 24430 ft 430 kts 232°
2026-05-04 12:49 35.60834 -13.02925 24273 ft 430 kts 232°
2026-05-04 12:49 35.58897 -13.05715 24120 ft 429 kts 232°
2026-05-04 12:49 35.56960 -13.08502 23975 ft 428 kts 232°
2026-05-04 12:50 35.55029 -13.11279 23813 ft 427 kts 232°
2026-05-04 12:50 35.53101 -13.14051 23655 ft 426 kts 232°
2026-05-04 12:50 35.51178 -13.16814 23500 ft 426 kts 232°
2026-05-04 12:50 35.49257 -13.19570 23345 ft 425 kts 232°
2026-05-04 12:51 35.47338 -13.22321 23193 ft 424 kts 232°
2026-05-04 12:51 35.45447 -13.25030 23042 ft 423 kts 232°
2026-05-04 12:51 35.43534 -13.27769 22880 ft 422 kts 232°
2026-05-04 12:51 35.41624 -13.30501 22727 ft 421 kts 232°
2026-05-04 12:52 35.39720 -13.33224 22572 ft 421 kts 232°
2026-05-04 12:52 35.37817 -13.35940 22417 ft 420 kts 232°
2026-05-04 12:52 35.35915 -13.38653 22262 ft 419 kts 232°
2026-05-04 12:52 35.34016 -13.41362 22106 ft 418 kts 232°
2026-05-04 12:53 35.32127 -13.44051 21952 ft 417 kts 232°
2026-05-04 12:53 35.30237 -13.46741 21797 ft 417 kts 232°
2026-05-04 12:53 35.28348 -13.49431 21647 ft 416 kts 232°
2026-05-04 12:53 35.26454 -13.52095 21480 ft 415 kts 232°
2026-05-04 12:54 35.24543 -13.54796 21334 ft 428 kts 232°
2026-05-04 12:54 35.22580 -13.57630 21190 ft 441 kts 232°
2026-05-04 12:54 35.20594 -13.60478 21041 ft 439 kts 232°
2026-05-04 12:54 35.18593 -13.63282 20885 ft 437 kts 231°
2026-05-04 12:55 35.16599 -13.66078 20732 ft 436 kts 232°
2026-05-04 12:55 35.14622 -13.68891 20588 ft 435 kts 232°
2026-05-04 12:55 35.12654 -13.71691 20419 ft 434 kts 232°
2026-05-04 12:55 35.10678 -13.74474 20263 ft 433 kts 232°
2026-05-04 12:56 35.08704 -13.77248 20095 ft 432 kts 232°
2026-05-04 12:56 35.06740 -13.80021 19952 ft 432 kts 232°
2026-05-04 12:56 35.04777 -13.82793 19795 ft 430 kts 232°
2026-05-04 12:56 35.02816 -13.85552 19638 ft 430 kts 232°
2026-05-04 12:57 35.00860 -13.88299 19483 ft 429 kts 232°
2026-05-04 12:57 34.98909 -13.91042 19376 ft 428 kts 232°
2026-05-04 12:57 34.96957 -13.93786 19297 ft 428 kts 232°
2026-05-04 12:57 34.95007 -13.96522 19216 ft 428 kts 231°
2026-05-04 12:58 34.93050 -13.99251 19151 ft 427 kts 231°
2026-05-04 12:58 34.91109 -14.01984 19148 ft 427 kts 232°
2026-05-04 12:58 34.89166 -14.04724 19141 ft 428 kts 231°
2026-05-04 12:58 34.87203 -14.07454 19133 ft 428 kts 231°
2026-05-04 12:59 34.85278 -14.10151 19130 ft 428 kts 231°
2026-05-04 12:59 34.83312 -14.12870 19123 ft 428 kts 231°
2026-05-04 12:59 34.81342 -14.15579 19118 ft 428 kts 231°
2026-05-04 12:59 34.79375 -14.18354 19118 ft 427 kts 232°
2026-05-04 13:00 34.77458 -14.21118 19110 ft 427 kts 232°
2026-05-04 13:00 34.75502 -14.23840 19096 ft 427 kts 231°
2026-05-04 13:00 34.73521 -14.26535 19097 ft 427 kts 231°
2026-05-04 13:00 34.71586 -14.29218 19094 ft 428 kts 231°
2026-05-04 13:01 34.69644 -14.31952 19095 ft 428 kts 231°
2026-05-04 13:01 34.67689 -14.34672 19092 ft 428 kts 231°
2026-05-04 13:01 34.65719 -14.37383 19093 ft 428 kts 231°
2026-05-04 13:01 34.63754 -14.40098 19094 ft 428 kts 231°
2026-05-04 13:02 34.61799 -14.42819 19092 ft 427 kts 231°
2026-05-04 13:02 34.59842 -14.45530 19091 ft 428 kts 231°
2026-05-04 13:02 34.57878 -14.48237 19095 ft 427 kts 231°
2026-05-04 13:02 34.55914 -14.50948 19094 ft 428 kts 231°
2026-05-04 13:03 34.53944 -14.53649 19096 ft 428 kts 231°
2026-05-04 13:03 34.51982 -14.56363 19092 ft 427 kts 231°
2026-05-04 13:03 34.50030 -14.59079 19095 ft 427 kts 231°
2026-05-04 13:03 34.48062 -14.61786 19095 ft 428 kts 231°
2026-05-04 13:04 34.46089 -14.64483 19103 ft 428 kts 231°
2026-05-04 13:04 34.44121 -14.67190 19102 ft 428 kts 231°
2026-05-04 13:04 34.42158 -14.69899 19101 ft 428 kts 231°
2026-05-04 13:04 34.40193 -14.72597 19100 ft 428 kts 231°
2026-05-04 13:05 34.38188 -14.75268 19100 ft 428 kts 229°
2026-05-04 13:05 34.36103 -14.77838 19102 ft 428 kts 227°
2026-05-04 13:05 34.34038 -14.80337 19107 ft 405 kts 228°
2026-05-04 13:05 34.32774 -14.81928 19102 ft 387 kts 229°
2026-05-04 13:06 34.30987 -14.84228 19097 ft 368 kts 229°
2026-05-04 13:06 34.28618 -14.87240 19102 ft 371 kts 229°
2026-05-04 13:06 34.27408 -14.88759 19104 ft 371 kts 229°
2026-05-04 13:06 34.25639 -14.90982 19101 ft 372 kts 229°
2026-05-04 13:07 34.23854 -14.93239 19103 ft 372 kts 229°
2026-05-04 13:07 34.22044 -14.95528 19099 ft 372 kts 229°
2026-05-04 13:07 34.20277 -14.97752 19095 ft 372 kts 229°
2026-05-04 13:07 34.18489 -15.00002 19092 ft 372 kts 229°
2026-05-04 13:08 34.16701 -15.02254 19094 ft 372 kts 229°
2026-05-04 13:08 34.14908 -15.04509 19094 ft 372 kts 229°
2026-05-04 13:08 34.13117 -15.06759 19092 ft 372 kts 229°
2026-05-04 13:08 34.11324 -15.09012 19091 ft 372 kts 229°
2026-05-04 13:09 34.09531 -15.11264 19092 ft 372 kts 229°
2026-05-04 13:09 34.07737 -15.13513 19093 ft 372 kts 229°
2026-05-04 13:09 34.05943 -15.15758 19095 ft 370 kts 228°
2026-05-04 13:09 34.04209 -15.17928 19095 ft 348 kts 228°
2026-05-04 13:10 34.02578 -15.19964 19086 ft 329 kts 228°
2026-05-04 13:10 34.01005 -15.21930 19092 ft 325 kts 229°
2026-05-04 13:10 33.99434 -15.23901 19092 ft 327 kts 229°
2026-05-04 13:10 33.97858 -15.25873 19092 ft 326 kts 228°
2026-05-04 13:11 33.96282 -15.27839 19095 ft 327 kts 228°
2026-05-04 13:11 33.94703 -15.29809 19094 ft 327 kts 228°
2026-05-04 13:11 33.93127 -15.31776 19092 ft 327 kts 228°
2026-05-04 13:11 33.91549 -15.33745 19096 ft 327 kts 228°
2026-05-04 13:12 33.89970 -15.35714 19093 ft 327 kts 228°
2026-05-04 13:12 33.88391 -15.37679 19096 ft 327 kts 228°
2026-05-04 13:12 33.86808 -15.39650 19092 ft 327 kts 228°
2026-05-04 13:12 33.85229 -15.41616 19096 ft 327 kts 228°
2026-05-04 13:13 33.83646 -15.43584 19094 ft 327 kts 228°
2026-05-04 13:13 33.82065 -15.45548 19092 ft 327 kts 228°
2026-05-04 13:13 33.80482 -15.47514 19094 ft 327 kts 228°
2026-05-04 13:13 33.78901 -15.49479 19092 ft 327 kts 228°
2026-05-04 13:14 33.77319 -15.51441 19094 ft 327 kts 228°
2026-05-04 13:14 33.75736 -15.53405 19098 ft 327 kts 228°
2026-05-04 13:14 33.74153 -15.55368 19093 ft 327 kts 228°
2026-05-04 13:14 33.72570 -15.57326 19097 ft 327 kts 228°
2026-05-04 13:15 33.70985 -15.59288 19093 ft 327 kts 228°
2026-05-04 13:15 33.69401 -15.61246 19092 ft 327 kts 228°
2026-05-04 13:15 33.67819 -15.63206 19095 ft 327 kts 229°
2026-05-04 13:15 33.66247 -15.65192 18860 ft 327 kts 228°
2026-05-04 13:16 33.64654 -15.67122 18628 ft 325 kts 227°
2026-05-04 13:16 33.63071 -15.69053 18401 ft 324 kts 228°
2026-05-04 13:16 33.61506 -15.70997 18156 ft 324 kts 228°
2026-05-04 13:16 33.59944 -15.72934 17849 ft 322 kts 228°
2026-05-04 13:17 33.58398 -15.74837 17412 ft 324 kts 228°
2026-05-04 13:17 33.56824 -15.76772 16908 ft 324 kts 228°
2026-05-04 13:17 33.55265 -15.78718 16413 ft 323 kts 229°
2026-05-04 13:17 33.53767 -15.80711 15919 ft 321 kts 231°
2026-05-04 13:18 33.52310 -15.82729 15420 ft 319 kts 231°
2026-05-04 13:18 33.50844 -15.84721 14914 ft 318 kts 230°
2026-05-04 13:18 33.49368 -15.86686 14411 ft 316 kts 230°
2026-05-04 13:18 33.47904 -15.88644 13909 ft 315 kts 230°
2026-05-04 13:19 33.46456 -15.90599 13409 ft 313 kts 230°
2026-05-04 13:19 33.45012 -15.92542 12906 ft 311 kts 230°
2026-05-04 13:19 33.43647 -15.94545 12402 ft 309 kts 236°
2026-05-04 13:19 33.42439 -15.96643 11943 ft 304 kts 237°
2026-05-04 13:20 33.41279 -15.98732 11658 ft 299 kts 245°
2026-05-04 13:20 33.40286 -16.00904 11329 ft 298 kts 238°
2026-05-04 13:20 33.39014 -16.02844 11130 ft 294 kts 231°
2026-05-04 13:20 33.37505 -16.04507 10462 ft 302 kts 218°
2026-05-04 13:21 33.35949 -16.06133 10294 ft 291 kts 229°
2026-05-04 13:21 33.34656 -16.08012 9962 ft 293 kts 234°
2026-05-04 13:21 33.33450 -16.09991 9478 ft 295 kts 234°
2026-05-04 13:21 33.32280 -16.11973 9187 ft 290 kts 237°
2026-05-04 13:22 33.31089 -16.13922 8774 ft 290 kts 233°
2026-05-04 13:22 33.29853 -16.15808 8470 ft 287 kts 231°
2026-05-04 13:22 33.28412 -16.17465 8075 ft 287 kts 224°
2026-05-04 13:22 33.26975 -16.19098 7764 ft 285 kts 225°
2026-05-04 13:23 33.25549 -16.20736 7474 ft 282 kts 231°
2026-05-04 13:23 33.24268 -16.22492 7176 ft 282 kts 226°
2026-05-04 13:23 33.22828 -16.24084 6867 ft 281 kts 222°
2026-05-04 13:23 33.21311 -16.25565 6430 ft 283 kts 220°
2026-05-04 13:24 33.19897 -16.27185 6118 ft 278 kts 229°
2026-05-04 13:24 33.18604 -16.28891 5759 ft 278 kts 228°
2026-05-04 13:24 33.17386 -16.30688 5346 ft 278 kts 235°
2026-05-04 13:25 33.14961 -16.34271 4387 ft 277 kts 230°
2026-05-04 13:25 33.13669 -16.36015 3865 ft 278 kts 228°
2026-05-04 13:25 33.12407 -16.37683 3865 ft 268 kts 228°
2026-05-04 13:25 33.11139 -16.39337 3614 ft 270 kts 229°
2026-05-04 13:26 33.09905 -16.41010 3421 ft 268 kts 225°
2026-05-04 13:26 33.08465 -16.42432 3092 ft 271 kts 216°
2026-05-04 13:26 33.06930 -16.43707 2832 ft 268 kts 210°
2026-05-04 13:26 33.05176 -16.44458 2200 ft 274 kts 188°
2026-05-04 13:27 33.03238 -16.44553 1713 ft 270 kts 190°
2026-05-04 13:27 33.01565 -16.45223 2202 ft 261 kts 208°
2026-05-04 13:27 33.00050 -16.46386 2608 ft 259 kts 219°
2026-05-04 13:27 32.98677 -16.47786 2972 ft 267 kts 221°
2026-05-04 13:28 32.97215 -16.49155 2888 ft 267 kts 216°
2026-05-04 13:28 32.95715 -16.50440 2842 ft 265 kts 219°
2026-05-04 13:28 32.94202 -16.51923 2785 ft 303 kts 216°
2026-05-04 13:28 32.92513 -16.53307 2939 ft 274 kts 214°
2026-05-04 13:29 32.91054 -16.54531 2872 ft 239 kts 217°
2026-05-04 13:29 32.89776 -16.55608 2504 ft 212 kts 216°
2026-05-04 13:29 32.88639 -16.56615 2279 ft 204 kts 217°
2026-05-04 13:29 32.87505 -16.57606 2224 ft 193 kts 218°
2026-05-04 13:30 32.86525 -16.58524 2199 ft 168 kts 218°
2026-05-04 13:30 32.85595 -16.59299 1857 ft 161 kts 211°
2026-05-04 13:30 32.84589 -16.59990 1404 ft 171 kts 210°
2026-05-04 13:30 32.83608 -16.60772 1503 ft 165 kts 217°
2026-05-04 13:31 32.82738 -16.61587 1510 ft 155 kts 217°
2026-05-04 13:31 32.81914 -16.62466 1435 ft 167 kts 226°
2026-05-04 13:31 32.81130 -16.63526 1526 ft 170 kts 229°
2026-05-04 13:31 32.80405 -16.64610 1502 ft 165 kts 233°
2026-05-04 13:32 32.79710 -16.65682 1434 ft 164 kts 228°
2026-05-04 13:32 32.78934 -16.66700 1383 ft 167 kts 224°
2026-05-04 13:32 32.78126 -16.67690 1294 ft 165 kts 229°
2026-05-04 13:32 32.77399 -16.68740 1186 ft 162 kts 229°
2026-05-04 13:33 32.76586 -16.69625 1034 ft 154 kts 219°
2026-05-04 13:33 32.75776 -16.70451 960 ft 160 kts 224°
2026-05-04 13:33 32.74971 -16.71431 954 ft 165 kts 227°
2026-05-04 13:33 32.74190 -16.72373 827 ft 155 kts 223°
2026-05-04 13:34 32.73389 -16.73201 587 ft 155 kts 222°
2026-05-04 13:34 32.72570 -16.74170 638 ft 177 kts 227°
2026-05-04 13:34 32.71723 -16.75156 423 ft 163 kts 225°
2026-05-04 13:34 32.70929 -16.76108 288 ft 163 kts 224°
2026-05-04 13:35 32.70165 -16.76996 206 ft 136 kts 231°
2026-05-04 13:35 32.69443 -16.77847 180 ft 26 kts 226°
2026-05-04 13:35 32.69300 -16.77970 180 ft 11 kts 185°
2026-05-04 13:36 32.69285 -16.77951 180 ft 4 kts 95°
2026-05-04 13:36 32.69287 -16.77909 179 ft 6 kts 82°
2026-05-04 13:36 32.69289 -16.77889 172 ft 7 kts 76°
2026-05-04 13:36 32.69314 -16.77827 172 ft 10 kts 49°
2026-05-04 13:37 32.69366 -16.77762 172 ft 12 kts 43°
2026-05-04 13:37 32.69429 -16.77682 173 ft 14 kts 44°
2026-05-04 13:37 32.69475 -16.77625 173 ft 6 kts 69°
2026-05-04 13:37 32.69472 -16.77594 172 ft 6 kts 121°
2026-05-04 13:38 32.69469 -16.77589 172 ft 0 kts 135°
2026-05-04 13:38 32.69458 -16.77575 173 ft 4 kts 135°
2026-05-04 13:38 32.69449 -16.77565 173 ft 0 kts 136°
2026-05-04 13:38 32.69448 -16.77564 173 ft 0 kts 136°